M I D A S
Marine Information and Data Acquisition System
Tripno 1430 of the Zeeleeuw from 2008-02-27 07:35:08 to 2008-02-27 15:52:09
Back to CruiseResearch ActivitiesStationsMapUnderway DataData graphs

EquipmentUnitsComment
TimeDGPSUTC
LatitudeDGPSDM.mWGS84
LongitudeDGPSDM.mWGS84
TemperatureSBE03/SBE38deg celciusITS90
ConductivitySBE21S/mITS90
SalinitySBE21 Practical Salinity Units
ChlorophylAChelsea fluorimeterg/lCalibrated in Aceton
Missing or incorrect values are displayed as -999
Sea surface data collected by the RV Zeeleeuw from 2008-02-27 07:37:18 to 2008-02-27 16:00:25
Time Latitude Longitude Temperature Conductivity Salinity ChlorophylA
2008-02-27 07:38:23 51°13.677 2°55.876 14.2164 0.205436 1.077437 -1.766697
2008-02-27 07:39:23 51°13.69 2°55.764 14.2189 0.205436 1.077507 -1.801521
2008-02-27 07:40:23 51°13.693 2°55.733 14.2354 0.205436 1.077593 -1.766697
2008-02-27 07:41:22 51°13.723 2°55.742 14.3591 0.205436 1.077663 -1.801521
2008-02-27 07:42:22 51°13.808 2°55.66 14.03 0.205436 1.077698 -1.801521
2008-02-27 07:43:21 51°13.933 2°55.558 14.0552 0.205333 1.077269 -1.801521
2008-02-27 07:44:20 51°14.031 2°55.486 14.2095 0.205333 1.077356 -1.766697
2008-02-27 07:45:20 51°14.119 2°55.418 14.2152 0.205333 1.077408 -1.801521
2008-02-27 07:46:20 51°14.252 2°55.275 14.238 0.205333 1.077443 -1.766697
2008-02-27 07:47:20 51°14.376 2°55.038 13.9317 0.205333 1.077548 -1.766697
2008-02-27 07:48:19 51°14.479 2°54.76 13.8475 0.205333 1.077774 -1.766697
2008-02-27 07:49:19 51°14.581 2°54.468 13.7155 0.205333 1.077774 -1.801521
2008-02-27 07:50:19 51°14.665 2°54.164 13.7529 0.20523 1.077293 -1.801521
2008-02-27 07:51:20 51°14.72 2°53.833 13.7315 0.20523 1.07738 -1.766697
2008-02-27 07:52:19 51°14.754 2°53.508 13.7684 0.20523 1.077449 -1.766697
2008-02-27 07:53:20 51°14.749 2°53.171 13.6939 0.20523 1.077536 -1.801521
2008-02-27 07:54:20 51°14.736 2°52.837 13.8052 0.20523 1.077623 -1.766697
2008-02-27 07:55:20 51°14.688 2°52.509 13.7395 0.20523 1.077798 -1.766697
2008-02-27 07:56:20 51°14.635 2°52.179 13.7645 0.205127 1.07716 -1.766697
2008-02-27 07:57:20 51°14.576 2°51.854 13.757 0.205127 1.077264 -1.766697
2008-02-27 07:58:20 51°14.524 2°51.525 13.7462 0.205127 1.077316 -1.766697
2008-02-27 07:59:20 51°14.477 2°51.195 13.7472 0.205127 1.077403 -1.766697
2008-02-27 08:00:20 51°14.432 2°50.861 13.7542 0.205127 1.077491 -1.766697
2008-02-27 08:01:20 51°14.385 2°50.527 13.7715 0.205127 1.07756 -1.766697
2008-02-27 08:02:20 51°14.339 2°50.193 13.7889 0.205024 1.077062 -1.766697
2008-02-27 08:03:20 51°14.293 2°49.857 13.8001 0.205024 1.077131 -1.766697
2008-02-27 08:04:20 51°14.245 2°49.526 13.7854 0.205024 1.077201 -1.766697
2008-02-27 08:05:20 51°14.199 2°49.193 13.811 0.205024 1.077288 -1.766697
2008-02-27 08:06:20 51°14.145 2°48.861 13.8434 0.205024 1.077375 -1.766697
2008-02-27 08:07:20 51°14.03 2°48.574 13.8217 0.205024 1.077427 -1.766697
2008-02-27 08:08:20 51°13.9 2°48.3 13.8292 0.204921 1.076928 -1.801521
2008-02-27 08:09:20 51°13.771 2°48.023 13.8767 0.204921 1.076963 -1.766697
2008-02-27 08:10:20 51°13.643 2°47.746 13.8614 0.204921 1.077085 -1.801521
2008-02-27 08:11:20 51°13.517 2°47.467 13.8828 0.204921 1.077138 -1.801521
2008-02-27 08:12:20 51°13.389 2°47.188 13.8838 0.204921 1.077207 -1.766697
2008-02-27 08:13:20 51°13.262 2°46.907 13.9197 0.204921 1.07726 -1.766697
2008-02-27 08:14:20 51°13.135 2°46.626 13.9288 0.204818 1.076795 -1.766697
2008-02-27 08:15:20 51°13.008 2°46.345 13.9331 0.204818 1.0769 -1.766697
2008-02-27 08:16:20 51°12.883 2°46.063 13.9527 0.204818 1.07697 -1.766697
2008-02-27 08:17:20 51°12.766 2°45.773 13.975 0.204818 1.077039 -1.801521
2008-02-27 08:18:20 51°12.664 2°45.47 13.9763 0.204818 1.077144 -1.801521
2008-02-27 08:19:20 51°12.58 2°45.156 14.0003 0.204818 1.077231 -1.766697
2008-02-27 08:20:20 51°12.497 2°44.84 14.0082 0.204818 1.077266 -1.801521
2008-02-27 08:21:20 51°12.412 2°44.525 14.0251 0.204715 1.076749 -1.766697
2008-02-27 08:22:20 51°12.328 2°44.21 14.0333 0.204715 1.076854 -1.801521
2008-02-27 08:23:20 51°12.24 2°43.898 14.0495 0.204715 1.076924 -1.766697
2008-02-27 08:24:20 51°12.147 2°43.59 14.063 0.204715 1.076994 -1.766697
2008-02-27 08:25:20 51°12.054 2°43.281 14.0798 0.204715 1.077046 -1.766697
2008-02-27 08:26:20 51°11.953 2°42.981 14.0956 0.204715 1.077098 -1.801521
2008-02-27 08:27:20 51°11.839 2°42.692 14.0959 0.204612 1.076616 -1.766697
2008-02-27 08:28:20 51°11.726 2°42.404 14.1171 0.204612 1.076703 -1.766697
2008-02-27 08:29:20 51°11.605 2°42.121 14.1432 0.204612 1.076738 -1.766697
2008-02-27 08:30:20 51°11.476 2°41.844 14.1427 0.204612 1.076826 -1.766697
2008-02-27 08:31:20 51°11.349 2°41.565 14.1499 0.204612 1.07693 -1.766697
2008-02-27 08:32:20 51°11.221 2°41.284 14.1749 0.204612 1.076983 -1.801521
2008-02-27 08:33:20 51°11.093 2°41.002 14.1876 0.204612 1.077052 -1.801521
2008-02-27 08:34:20 51°10.965 2°40.718 14.2121 0.204612 1.07714 -1.801521
2008-02-27 08:35:20 51°10.836 2°40.434 14.2103 0.204509 1.076658 -1.766697
2008-02-27 08:36:20 51°10.706 2°40.149 14.2301 0.204509 1.076745 -1.766697
2008-02-27 08:37:20 51°10.577 2°39.866 14.2583 0.204509 1.076797 -1.801521
2008-02-27 08:38:20 51°10.45 2°39.578 14.2691 0.204509 1.076885 -1.801521
2008-02-27 08:39:20 51°10.335 2°39.276 14.2825 0.204509 1.076954 -1.801521
2008-02-27 08:40:20 51°10.221 2°38.973 14.284 0.204509 1.077077 -1.801521
2008-02-27 08:41:20 51°10.119 2°38.675 14.3155 0.204406 1.076542 -1.801521
2008-02-27 08:42:20 51°10.067 2°38.512 14.3325 0.204406 1.076629 -1.766697
2008-02-27 08:43:20 51°10.034 2°38.422 14.3383 0.204406 1.076682 -1.801521
2008-02-27 08:44:20 51°10.007 2°38.362 14.3625 0.204406 1.076786 -1.766697
2008-02-27 08:45:20 51°9.984 2°38.322 14.3716 0.204406 1.076839 -1.766697
2008-02-27 08:46:20 51°9.963 2°38.289 14.3782 0.204406 1.076909 -1.801521
2008-02-27 08:47:20 51°9.943 2°38.26 14.3898 0.204406 1.076996 -1.801521
2008-02-27 08:48:20 51°9.924 2°38.234 14.3971 0.204303 1.076514 -1.766697
2008-02-27 08:49:20 51°9.905 2°38.21 14.4289 0.204303 1.076601 -1.801521
2008-02-27 08:50:20 51°9.885 2°38.189 14.4421 0.204303 1.076706 -1.766697
2008-02-27 08:51:20 51°9.852 2°38.144 14.4428 0.204303 1.076758 -1.766697
2008-02-27 08:52:20 51°9.819 2°38.072 14.4666 0.204303 1.076863 -1.801521
2008-02-27 08:53:20 51°9.795 2°37.976 14.4633 0.204303 1.076968 -1.801521
2008-02-27 08:54:20 51°9.775 2°37.898 14.4742 0.204303 1.07578 -1.766697
2008-02-27 08:55:20 51°9.76 2°37.796 14.4879 0.204406 1.075356 -1.766697
2008-02-27 08:56:20 51°9.743 2°37.7 14.5116 0.204509 1.079687 -1.766697
2008-02-27 08:57:20 51°9.728 2°37.605 14.5283 0.204509 1.081853 -1.766697
2008-02-27 08:58:20 51°9.711 2°37.51 14.5343 0.204406 1.0804 -1.801521
2008-02-27 08:59:20 51°9.694 2°37.416 14.5301 0.204406 1.08077 -1.766697
2008-02-27 09:00:20 51°9.677 2°37.321 14.5603 0.204406 1.081581 -1.766697
2008-02-27 09:01:20 51°9.662 2°37.222 14.5772 0.204304 1.080691 -1.766697
2008-02-27 09:02:20 51°9.642 2°37.128 14.5659 0.204406 1.081811 -1.766697
2008-02-27 09:03:20 51°9.625 2°37.041 14.5845 0.204304 1.083131 -1.766697
2008-02-27 09:04:20 51°9.608 2°36.947 14.5899 0.204201 1.082309 -1.766697
2008-02-27 09:05:20 51°9.591 2°36.85 14.6047 0.204098 1.081311 -1.801521
2008-02-27 09:06:20 51°9.574 2°36.753 14.6343 0.204201 1.081548 -1.766697
2008-02-27 09:07:20 51°9.557 2°36.658 14.6366 0.204201 1.082681 -1.766697
2008-02-27 09:08:20 51°9.54 2°36.564 14.6524 0.204304 1.083858 -1.766697
2008-02-27 09:09:20 51°9.522 2°36.471 14.6689 0.204407 1.084059 -1.766697
2008-02-27 09:10:20 51°9.505 2°36.375 14.665 0.204407 1.084396 -1.766697
2008-02-27 09:11:20 51°9.487 2°36.279 14.6792 0.204509 1.085575 -1.766697
2008-02-27 09:12:20 51°9.468 2°36.184 14.7072 0.205539 1.091176 -1.766697
2008-02-27 09:13:20 51°9.452 2°36.086 14.7125 0.206259 1.095341 -1.766697
2008-02-27 09:14:20 51°9.434 2°35.986 14.729 0.207289 1.101503 -1.766697
2008-02-27 09:15:20 51°9.417 2°35.886 14.7282 0.206877 1.098843 -1.766697
2008-02-27 09:16:20 51°9.4 2°35.785 14.7344 0.207906 1.105389 -1.766697
2008-02-27 09:17:20 51°9.381 2°35.688 14.7606 0.206671 1.097837 -1.766697
2008-02-27 09:18:20 51°9.363 2°35.594 14.7613 0.209244 1.113821 -1.766697
2008-02-27 09:19:20 51°9.346 2°35.501 14.7864 0.207597 1.103898 -1.766697
2008-02-27 09:20:20 51°9.329 2°35.409 14.7894 0.20945 1.115762 -1.766697
2008-02-27 09:21:20 51°9.31 2°35.315 14.8117 0.208112 1.107649 -1.766697
2008-02-27 09:22:20 51°9.294 2°35.219 14.8331 0.2147 1.145493 -1.766697
2008-02-27 09:23:20 51°9.275 2°35.125 14.84 0.212641 1.133477 -1.766697
2008-02-27 09:24:20 51°9.257 2°35.031 14.8513 0.210788 1.12374 -1.766697
2008-02-27 09:25:20 51°9.241 2°34.941 14.8524 0.209347 1.115222 -1.766697
2008-02-27 09:26:20 51°9.249 2°34.871 14.8701 0.212332 1.132491 -1.766697
2008-02-27 09:27:20 51°9.267 2°34.846 14.8672 0.218817 1.169405 -1.766697
2008-02-27 09:28:20 51°9.273 2°34.832 14.8912 0.222317 1.189135 -1.766697
2008-02-27 09:29:20 51°9.272 2°34.82 14.9046 0.224478 1.201327 -1.766697
2008-02-27 09:30:20 51°9.266 2°34.808 14.9241 0.224478 1.201664 -1.836345
2008-02-27 09:31:20 51°9.258 2°34.798 14.9404 0.224581 1.201768 -1.766697
2008-02-27 09:32:20 51°9.256 2°34.792 14.9526 0.223861 1.197611 -1.801521
2008-02-27 09:33:20 51°9.315 2°34.822 14.938 0.227052 1.216009 -1.766697
2008-02-27 09:34:20 51°9.438 2°34.897 14.9529 0.224478 1.201307 -1.801521
2008-02-27 09:35:20 51°9.61 2°35.004 14.9714 0.213053 1.136683 -1.766697
2008-02-27 09:36:20 51°9.789 2°35.114 14.9693 0.20945 1.117766 -1.731873
2008-02-27 09:37:20 51°9.967 2°35.229 14.9914 0.208833 1.113952 -1.766697
2008-02-27 09:38:20 51°10.145 2°35.349 14.9894 0.207495 1.106394 -1.697049
2008-02-27 09:39:20 51°10.324 2°35.47 15.0142 0.206877 1.103968 -1.697049
2008-02-27 09:40:20 51°10.498 2°35.599 15.0193 0.209142 1.117766 -1.731873
2008-02-27 09:41:20 51°10.662 2°35.752 15.0489 0.20945 1.119501 -1.697049
2008-02-27 09:42:20 51°10.821 2°35.917 15.0539 0.210274 1.12426 -1.731873
2008-02-27 09:43:20 51°10.981 2°36.084 15.0711 0.213465 1.142852 -1.697049
2008-02-27 09:44:20 51°11.139 2°36.249 15.0838 0.215626 1.155622 -1.731873
2008-02-27 09:45:20 51°11.299 2°36.413 15.0757 0.214597 1.150105 -1.662225
2008-02-27 09:46:20 51°11.457 2°36.577 15.0886 0.216038 1.158999 -1.731873
2008-02-27 09:47:20 51°11.617 2°36.741 15.1079 0.218611 1.173879 -1.731873
2008-02-27 09:48:20 51°11.775 2°36.903 15.1129 0.222523 1.195835 -1.697049
2008-02-27 09:49:20 51°11.933 2°37.07 15.1442 0.221082 1.188631 -1.627401
2008-02-27 09:50:20 51°12.089 2°37.24 15.1321 0.215318 1.155469 -1.697049
2008-02-27 09:51:20 51°12.247 2°37.409 15.158 0.213156 1.142966 -1.731873
2008-02-27 09:52:20 51°12.403 2°37.581 15.1702 0.219847 1.182252 -1.662225
2008-02-27 09:53:20 51°12.559 2°37.752 15.1641 0.218509 1.174193 -1.766697
2008-02-27 09:54:20 51°12.711 2°37.931 15.1947 0.222523 1.197026 -1.731873
2008-02-27 09:55:20 51°12.864 2°38.111 15.2053 0.223038 1.200358 -1.801521
2008-02-27 09:56:20 51°13.018 2°38.289 15.2219 0.221494 1.19199 -1.766697
2008-02-27 09:57:20 51°13.171 2°38.467 15.2136 0.220155 1.185259 -1.731873
2008-02-27 09:58:20 51°13.325 2°38.646 15.2272 0.219332 1.180025 -1.766697
2008-02-27 09:59:20 51°13.481 2°38.82 15.2476 0.223449 1.204492 -1.662225
2008-02-27 10:00:19 51°13.656 2°38.919 15.2579 0.224685 1.210455 -1.766697
2008-02-27 10:01:20 51°13.844 2°39.005 15.2587 0.221597 1.193445 -1.766697
2008-02-27 10:02:19 51°14.017 2°39.126 15.2805 0.221288 1.19225 -1.697049
2008-02-27 10:03:19 51°14.193 2°39.248 15.2961 0.218817 1.178129 -1.731873
2008-02-27 10:04:19 51°14.37 2°39.369 15.2975 0.220156 1.18591 -1.731873
2008-02-27 10:05:19 51°14.547 2°39.493 15.3038 0.224376 1.210152 -1.731873
2008-02-27 10:06:20 51°14.726 2°39.621 15.3256 0.220567 1.189313 -1.766697
2008-02-27 10:07:19 51°14.898 2°39.744 15.3308 0.219126 1.181728 -1.766697
2008-02-27 10:08:20 51°15.076 2°39.875 15.3435 0.2217 1.195341 -1.731873
2008-02-27 10:09:19 51°15.248 2°40 15.3692 0.221905 1.196948 -1.975642
2008-02-27 10:10:19 51°15.425 2°40.125 15.3696 0.221802 1.195945 -1.766697
2008-02-27 10:11:19 51°15.597 2°40.258 15.368 0.222317 1.199326 -1.697049
2008-02-27 10:12:20 51°15.774 2°40.388 15.3891 0.226949 1.225953 -1.662225
2008-02-27 10:13:19 51°15.945 2°40.513 15.4008 0.224376 1.212333 -1.87117
2008-02-27 10:14:20 51°16.119 2°40.646 15.4113 0.220361 1.188561 -1.766697
2008-02-27 10:15:20 51°16.293 2°40.776 15.4104 0.221803 1.197561 -1.940818
2008-02-27 10:16:19 51°16.463 2°40.898 15.4357 0.224273 1.212091 -1.87117
2008-02-27 10:17:19 51°16.636 2°41.025 15.4355 0.224273 1.211707 -1.731873
2008-02-27 10:18:19 51°16.808 2°41.151 15.4324 0.226126 1.222656 -1.766697
2008-02-27 10:19:20 51°16.983 2°41.274 15.4555 0.221803 1.197561 -1.731873
2008-02-27 10:20:19 51°17.15 2°41.394 15.4674 0.224582 1.213807 -1.766697
2008-02-27 10:21:20 51°17.322 2°41.519 15.4734 0.22664 1.226549 -1.731873
2008-02-27 10:22:19 51°17.49 2°41.636 15.4967 0.221803 1.198161 -1.801521
2008-02-27 10:23:19 51°17.661 2°41.755 15.4995 0.224479 1.21381 -1.766697
2008-02-27 10:24:19 51°17.832 2°41.876 15.5187 0.221494 1.196585 -1.731873
2008-02-27 10:25:19 51°18.003 2°41.995 15.5153 0.21995 1.188145 -1.731873
2008-02-27 10:26:20 51°18.177 2°42.114 15.5403 0.219332 1.184298 -1.801521
2008-02-27 10:27:19 51°18.336 2°42.252 15.5384 0.223449 1.208799 -1.801521
2008-02-27 10:28:19 51°18.417 2°42.513 15.5477 0.226023 1.222662 -1.766697
2008-02-27 10:29:19 51°18.46 2°42.805 15.5625 0.236419 1.283166 -1.662225
2008-02-27 10:30:19 51°18.501 2°43.097 15.5831 0.234464 1.271475 -2.21941
2008-02-27 10:31:20 51°18.549 2°43.39 15.5652 0.237963 1.291089 -1.836345
2008-02-27 10:32:20 51°18.594 2°43.679 15.6024 0.239404 1.299982 -1.383633
2008-02-27 10:33:20 51°18.646 2°43.965 15.5691 0.239096 1.298019 -1.731873
2008-02-27 10:34:19 51°18.692 2°44.247 15.6064 0.241463 1.311919 -1.836345
2008-02-27 10:35:19 51°18.735 2°44.529 15.631 0.245992 1.337937 -1.766697
2008-02-27 10:36:19 51°18.772 2°44.81 15.6423 0.245889 1.337235 -1.801521
2008-02-27 10:37:19 51°18.815 2°45.089 15.6369 0.240331 1.304367 -1.766697
2008-02-27 10:38:20 51°18.856 2°45.377 15.6821 0.242184 1.314945 -1.801521
2008-02-27 10:39:19 51°18.89 2°45.658 15.6877 0.244242 1.32775 -1.836345
2008-02-27 10:40:20 51°18.926 2°45.949 15.6565 0.244551 1.329943 -1.766697
2008-02-27 10:41:19 51°18.961 2°46.227 15.6832 0.245992 1.338116 -1.766697
2008-02-27 10:42:20 51°18.996 2°46.515 15.6915 0.243316 1.322974 -1.731873
2008-02-27 10:43:19 51°19.031 2°46.791 15.6894 0.247022 1.343795 -1.766697
2008-02-27 10:44:19 51°19.067 2°47.068 15.7121 0.249698 1.359628 -1.766697
2008-02-27 10:45:19 51°19.101 2°47.348 15.7079 0.247536 1.346882 -1.731873
2008-02-27 10:46:19 51°19.13 2°47.632 15.7374 0.247742 1.348244 -1.766697
2008-02-27 10:47:20 51°19.167 2°47.924 15.7427 0.248051 1.350491 -1.836345
2008-02-27 10:48:20 51°19.201 2°48.212 15.7104 0.235493 1.277377 -1.766697
2008-02-27 10:49:20 51°19.24 2°48.5 15.7715 0.243419 1.324008 -1.662225
2008-02-27 10:50:19 51°19.253 2°48.786 15.7625 0.244345 1.329475 -1.662225
2008-02-27 10:51:19 51°19.209 2°49.081 15.7811 0.251757 1.371245 -1.731873
2008-02-27 10:52:19 51°19.156 2°49.375 15.7975 0.250728 1.365836 -1.766697
2008-02-27 10:53:20 51°19.109 2°49.674 15.7704 0.253095 1.380111 -1.766697
2008-02-27 10:54:19 51°19.073 2°49.966 15.8371 0.259477 1.41706 -1.801521
2008-02-27 10:55:20 51°19.04 2°50.265 15.7538 0.242801 1.319715 -1.488105
2008-02-27 10:56:20 51°19.044 2°50.56 15.8054 0.257624 1.405656 -1.801521
2008-02-27 10:57:19 51°19.091 2°50.839 15.8163 0.259272 1.415067 -1.801521
2008-02-27 10:58:20 51°19.135 2°51.129 15.8456 0.250316 1.363311 -1.697049
2008-02-27 10:59:19 51°19.176 2°51.407 15.8404 0.253507 1.38234 -2.010466
2008-02-27 11:00:20 51°19.218 2°51.691 15.854 0.257007 1.40236 -1.697049
2008-02-27 11:01:19 51°19.258 2°51.968 15.851 0.259169 1.415233 -1.801521
2008-02-27 11:02:20 51°19.302 2°52.257 15.9019 0.25958 1.41801 -1.87117
2008-02-27 11:03:19 51°19.343 2°52.532 15.8495 0.255875 1.395352 -1.836345
2008-02-27 11:04:20 51°19.389 2°52.819 15.8957 0.260816 1.42353 -1.801521
2008-02-27 11:05:20 51°19.431 2°53.102 15.8646 0.259477 1.417084 -1.836345
2008-02-27 11:06:19 51°19.474 2°53.376 15.9261 0.259272 1.414972 -1.731873
2008-02-27 11:07:20 51°19.515 2°53.66 15.8669 0.252992 1.379103 -2.254234
2008-02-27 11:08:19 51°19.555 2°53.936 15.9061 0.26411 1.442919 -1.627401
2008-02-27 11:09:20 51°19.598 2°54.216 15.925 0.265757 1.453075 -1.731873
2008-02-27 11:10:19 51°19.635 2°54.496 15.9314 0.262977 1.436464 -1.801521
2008-02-27 11:11:19 51°19.673 2°54.777 15.9614 0.265242 1.449011 -1.731873
2008-02-27 11:12:21 51°19.71 2°55.065 15.9734 0.264419 1.444966 -1.766697
2008-02-27 11:13:20 51°19.751 2°55.337 15.9155 0.261536 1.427871 -1.87117
2008-02-27 11:14:20 51°19.788 2°55.614 15.9575 0.263286 1.438099 -1.836345
2008-02-27 11:15:20 51°19.826 2°55.891 15.9652 0.264727 1.446189 -1.801521
2008-02-27 11:16:20 51°19.864 2°56.168 15.9819 0.26658 1.457534 -1.662225
2008-02-27 11:17:20 51°19.904 2°56.445 16.0099 0.268948 1.471077 -1.731873
2008-02-27 11:18:20 51°19.947 2°56.724 16.0032 0.264419 1.443997 -1.801521
2008-02-27 11:19:21 51°19.988 2°57.009 15.9905 0.265345 1.449701 -1.801521
2008-02-27 11:20:20 51°20.023 2°57.282 16.0081 0.27008 1.477319 -1.801521
2008-02-27 11:21:20 51°20.067 2°57.562 16.0052 0.269051 1.470069 -1.731873
2008-02-27 11:22:20 51°20.107 2°57.841 16.0664 0.271419 1.484624 -1.731873
2008-02-27 11:23:20 51°20.15 2°58.121 16.0454 0.269257 1.472268 -1.766697
2008-02-27 11:24:19 51°20.194 2°58.394 16.0312 0.267713 1.462475 -1.801521
2008-02-27 11:25:20 51°20.233 2°58.676 16.0209 0.263389 1.438427 -1.697049
2008-02-27 11:26:20 51°20.272 2°58.954 16.035 0.264624 1.445087 -1.766697
2008-02-27 11:27:20 51°20.312 2°59.238 16.0321 0.267816 1.463093 -1.766697
2008-02-27 11:28:21 51°20.356 2°59.522 16.0901 0.273066 1.493736 -1.801521
2008-02-27 11:29:20 51°20.399 2°59.8 16.082 0.273169 1.494431 -1.801521
2008-02-27 11:30:20 51°20.444 3°0.082 16.0646 0.269257 1.471897 -1.905994
2008-02-27 11:31:20 51°20.49 3°0.364 16.0819 0.264316 1.442727 -1.697049
2008-02-27 11:32:20 51°20.536 3°0.642 16.111 0.268433 1.466605 -1.766697
2008-02-27 11:33:20 51°20.581 3°0.919 16.1107 0.272963 1.493492 -1.766697
2008-02-27 11:34:20 51°20.626 3°1.199 16.1115 0.268639 1.467498 -1.766697
2008-02-27 11:35:20 51°20.672 3°1.48 16.1408 0.272345 1.489126 -1.801521
2008-02-27 11:36:19 51°20.719 3°1.753 16.145 0.263904 1.439247 -1.87117
2008-02-27 11:37:19 51°20.766 3°2.033 16.1252 0.265448 1.448984 -1.522929
2008-02-27 11:38:19 51°20.814 3°2.316 16.1246 0.271316 1.482861 -1.697049
2008-02-27 11:39:19 51°20.858 3°2.601 16.1579 0.268845 1.46834 -1.731873
2008-02-27 11:40:19 51°20.909 3°2.883 16.1664 0.273168 1.493405 -1.766697
2008-02-27 11:41:20 51°20.952 3°3.167 16.1582 0.276977 1.514994 -2.010466
2008-02-27 11:42:19 51°20.997 3°3.442 16.1707 0.278007 1.521399 -1.766697
2008-02-27 11:43:19 51°21.046 3°3.722 16.2136 0.277286 1.516524 -1.766697
2008-02-27 11:44:20 51°21.088 3°4.009 16.1752 0.271727 1.48464 -1.975642
2008-02-27 11:45:19 51°21.136 3°4.286 16.1915 0.271213 1.481349 -1.836345
2008-02-27 11:46:19 51°21.188 3°4.566 16.2102 0.271727 1.484541 -1.697049
2008-02-27 11:47:19 51°21.247 3°4.843 16.2145 0.271624 1.483972 -1.766697
2008-02-27 11:48:20 51°21.311 3°5.12 16.2525 0.273992 1.497506 -1.801521
2008-02-27 11:49:19 51°21.378 3°5.382 16.2159 0.276463 1.511667 -1.801521
2008-02-27 11:50:20 51°21.451 3°5.656 16.2222 0.272654 1.489611 -1.801521
2008-02-27 11:51:20 51°21.526 3°5.925 16.2064 0.27111 1.480285 -1.801521
2008-02-27 11:52:20 51°21.596 3°6.196 16.2614 0.272551 1.48827 -1.801521
2008-02-27 11:53:21 51°21.668 3°6.471 16.2377 0.271418 1.481842 -1.766697
2008-02-27 11:54:19 51°21.738 3°6.734 16.2572 0.275021 1.502693 -1.836345
2008-02-27 11:55:21 51°21.81 3°7.017 16.2549 0.271727 1.483448 -1.766697
2008-02-27 11:56:20 51°21.799 3°7.3 16.2561 0.275124 1.503765 -1.87117
2008-02-27 11:57:20 51°21.619 3°7.432 16.2881 0.280169 1.532382 -1.766697
2008-02-27 11:58:20 51°21.409 3°7.363 16.2979 0.280786 1.535745 -1.801521
2008-02-27 11:59:20 51°21.221 3°7.324 16.2876 0.298904 1.640645 -1.766697
2008-02-27 12:00:21 51°21.132 3°7.37 16.3001 0.297154 1.630711 -1.766697
2008-02-27 12:01:20 51°21.07 3°7.368 16.2913 0.292934 1.605916 -1.766697
2008-02-27 12:02:20 51°21.014 3°7.296 16.3114 0.289639 1.586811 -1.766697
2008-02-27 12:03:20 51°20.973 3°7.205 16.3129 0.292316 1.602043 -1.766697
2008-02-27 12:04:20 51°20.95 3°7.116 16.3189 0.289125 1.583593 -1.766697
2008-02-27 12:05:20 51°20.941 3°7.042 16.3341 0.291595 1.597629 -1.766697
2008-02-27 12:06:20 51°20.932 3°6.984 16.3362 0.288404 1.578895 -1.766697
2008-02-27 12:07:20 51°20.919 3°6.921 16.3321 0.267713 1.459371 -1.766697
2008-02-27 12:08:20 51°20.919 3°6.801 16.3358 0.271727 1.4832 -1.766697
2008-02-27 12:09:20 51°20.94 3°6.725 16.3629 0.276257 1.509139 -1.766697
2008-02-27 12:10:20 51°20.962 3°6.653 16.3515 0.280169 1.531434 -1.801521
2008-02-27 12:11:20 51°20.991 3°6.565 16.3712 0.27708 1.513612 -1.801521
2008-02-27 12:12:20 51°21.013 3°6.494 16.3635 0.27986 1.529779 -1.766697
2008-02-27 12:13:20 51°21.027 3°6.434 16.3768 0.282433 1.544564 -1.766697
2008-02-27 12:14:20 51°21.041 3°6.376 16.3909 0.276257 1.50919 -1.766697
2008-02-27 12:15:20 51°21.061 3°6.305 16.3998 0.28058 1.534324 -1.766697
2008-02-27 12:16:20 51°21.088 3°6.223 16.4021 0.275124 1.502659 -1.766697
2008-02-27 12:17:20 51°21.112 3°6.14 16.3958 0.272139 1.485151 -1.766697
2008-02-27 12:18:20 51°21.131 3°6.073 16.4078 0.279345 1.527318 -1.766697
2008-02-27 12:19:20 51°21.154 3°5.992 16.4227 0.282948 1.548547 -1.766697
2008-02-27 12:20:20 51°21.181 3°5.904 16.4194 0.280992 1.53678 -1.766697
2008-02-27 12:21:20 51°21.206 3°5.822 16.4395 0.281301 1.538873 -1.766697
2008-02-27 12:22:20 51°21.228 3°5.746 16.4432 0.280271 1.533387 -1.766697
2008-02-27 12:23:20 51°21.249 3°5.671 16.4427 0.279139 1.526104 -1.766697
2008-02-27 12:24:20 51°21.265 3°5.605 16.4545 0.280992 1.53768 -1.766697
2008-02-27 12:25:20 51°21.283 3°5.535 16.4496 0.28686 1.571331 -1.766697
2008-02-27 12:26:20 51°21.302 3°5.464 16.4731 0.28233 1.545391 -1.801521
2008-02-27 12:27:20 51°21.322 3°5.39 16.4809 0.285007 1.560662 -1.766697
2008-02-27 12:28:20 51°21.343 3°5.316 16.4836 0.293345 1.609218 -1.766697
2008-02-27 12:29:20 51°21.366 3°5.241 16.4956 0.289433 1.586203 -1.766697
2008-02-27 12:30:20 51°21.386 3°5.17 16.497 0.293037 1.607374 -1.766697
2008-02-27 12:31:20 51°21.408 3°5.096 16.4968 0.289639 1.587741 -1.766697
2008-02-27 12:32:20 51°21.431 3°5.037 16.5018 0.279448 1.52955 -1.766697
2008-02-27 12:33:20 51°21.466 3°4.979 16.5052 0.286448 1.569447 -1.766697
2008-02-27 12:34:20 51°21.515 3°4.925 16.5212 0.299625 1.645929 -1.766697
2008-02-27 12:35:20 51°21.551 3°4.881 16.521 0.296537 1.627891 -1.766697
2008-02-27 12:36:20 51°21.582 3°4.838 16.5379 0.301478 1.657026 -1.766697
2008-02-27 12:37:20 51°21.616 3°4.81 16.53 0.30086 1.65352 -1.801521
2008-02-27 12:38:20 51°21.632 3°4.844 16.5375 0.30889 1.700138 -1.697049
2008-02-27 12:39:20 51°21.618 3°4.875 16.556 0.31445 1.732318 -2.010466
2008-02-27 12:40:20 51°21.6 3°4.889 16.5632 0.3162 1.74252 -1.766697
2008-02-27 12:41:20 51°21.582 3°4.895 16.569 0.31064 1.709669 -1.801521
2008-02-27 12:42:20 51°21.563 3°4.898 16.5822 0.31342 1.726985 -1.801521
2008-02-27 12:43:20 51°21.548 3°4.923 16.574 0.320935 1.770117 -1.766697
2008-02-27 12:44:20 51°21.575 3°4.951 16.5879 0.327009 1.806655 -1.766697
2008-02-27 12:45:20 51°21.658 3°4.952 16.5784 0.316509 1.745492 -1.766697
2008-02-27 12:46:20 51°21.741 3°4.956 16.6029 0.31795 1.753226 -1.766697
2008-02-27 12:47:20 51°21.819 3°4.96 16.5993 0.321244 1.77305 -1.766697
2008-02-27 12:48:20 51°21.896 3°4.964 16.6101 0.313626 1.728417 -1.766697
2008-02-27 12:49:20 51°21.995 3°4.968 16.6157 0.307449 1.693169 -1.766697
2008-02-27 12:50:20 51°22.124 3°4.964 16.6171 0.303743 1.671032 -1.766697
2008-02-27 12:51:20 51°22.286 3°4.965 16.6136 0.289948 1.590462 -1.766697
2008-02-27 12:52:20 51°22.461 3°4.972 16.6175 0.285933 1.567675 -1.801521
2008-02-27 12:53:20 51°22.632 3°4.977 16.6277 0.286654 1.572799 -1.801521
2008-02-27 12:54:20 51°22.798 3°4.983 16.6351 0.289022 1.586529 -1.766697
2008-02-27 12:55:20 51°22.948 3°4.992 16.6487 0.29314 1.610479 -1.766697
2008-02-27 12:56:20 51°23.096 3°5.002 16.6632 0.28861 1.584778 -1.801521
2008-02-27 12:57:20 51°23.273 3°5.017 16.6581 0.279757 1.533622 -1.801521
2008-02-27 12:58:20 51°23.467 3°5.036 16.6742 0.28511 1.565162 -1.766697
2008-02-27 12:59:20 51°23.661 3°5.056 16.6796 0.27111 1.483686 -1.766697
2008-02-27 13:00:20 51°23.858 3°5.079 16.672 0.272757 1.49338 -1.731873
2008-02-27 13:01:20 51°24.059 3°5.098 16.6921 0.274404 1.504013 -1.766697
2008-02-27 13:02:20 51°24.26 3°5.114 16.6987 0.26061 1.423657 -1.766697
2008-02-27 13:03:20 51°24.456 3°5.131 16.7048 0.261742 1.430616 -1.766697
2008-02-27 13:04:20 51°24.651 3°5.141 16.7178 0.257213 1.405148 -1.801521
2008-02-27 13:05:20 51°24.842 3°5.142 16.7104 0.260919 1.426874 -1.766697
2008-02-27 13:06:20 51°25.034 3°5.146 16.7212 0.256183 1.399216 -1.766697
2008-02-27 13:07:20 51°25.224 3°5.151 16.7401 0.26133 1.429418 -1.766697
2008-02-27 13:08:20 51°25.415 3°5.155 16.7398 0.264624 1.448437 -1.801521
2008-02-27 13:09:20 51°25.603 3°5.159 16.7482 0.265654 1.454262 -1.766697
2008-02-27 13:10:20 51°25.791 3°5.167 16.7497 0.261227 1.428512 -1.766697
2008-02-27 13:11:20 51°25.978 3°5.168 16.7617 0.260198 1.42353 -1.766697
2008-02-27 13:12:20 51°26.165 3°5.17 16.7666 0.260713 1.426693 -1.766697
2008-02-27 13:13:20 51°26.353 3°5.17 16.7664 0.261227 1.429424 -1.766697
2008-02-27 13:14:20 51°26.539 3°5.171 16.768 0.256389 1.401391 -1.766697
2008-02-27 13:15:20 51°26.725 3°5.17 16.7934 0.257419 1.407824 -1.766697
2008-02-27 13:16:19 51°26.91 3°5.17 16.7885 0.256183 1.400769 -1.766697
2008-02-27 13:17:20 51°27.101 3°5.172 16.7967 0.258242 1.412219 -1.801521
2008-02-27 13:18:20 51°27.29 3°5.172 16.8016 0.25536 1.39555 -1.697049
2008-02-27 13:19:19 51°27.477 3°5.173 16.7944 0.257728 1.4097 -1.801521
2008-02-27 13:20:20 51°27.671 3°5.17 16.8006 0.259683 1.420726 -1.801521
2008-02-27 13:21:20 51°27.851 3°5.111 16.8141 0.263286 1.441872 -1.766697
2008-02-27 13:22:19 51°28.007 3°4.94 16.8156 0.258448 1.413859 -1.766697
2008-02-27 13:23:20 51°28.174 3°4.775 16.8302 0.254639 1.392029 -1.766697
2008-02-27 13:24:20 51°28.34 3°4.614 16.8182 0.253301 1.384058 -1.766697
2008-02-27 13:25:19 51°28.507 3°4.455 16.8219 0.249698 1.36388 -1.801521
2008-02-27 13:26:20 51°28.679 3°4.296 16.8439 0.251037 1.371242 -1.801521
2008-02-27 13:27:20 51°28.851 3°4.135 16.8449 0.250007 1.365199 -1.766697
2008-02-27 13:28:19 51°29.02 3°3.978 16.8454 0.242801 1.323662 -1.766697
2008-02-27 13:29:20 51°29.195 3°3.818 16.845 0.239405 1.304262 -1.801521
2008-02-27 13:30:20 51°29.367 3°3.657 16.8665 0.238581 1.299316 -1.766697
2008-02-27 13:31:19 51°29.533 3°3.499 16.8715 0.234155 1.274617 -1.766697
2008-02-27 13:32:20 51°29.706 3°3.337 16.8797 0.233228 1.268751 -1.766697
2008-02-27 13:33:20 51°29.873 3°3.174 16.8717 0.224685 1.220101 -1.766697
2008-02-27 13:34:19 51°30.039 3°3.014 16.8888 0.228082 1.239405 -1.766697
2008-02-27 13:35:20 51°30.216 3°2.865 16.8983 0.230861 1.255526 -1.766697
2008-02-27 13:36:20 51°30.404 3°2.785 16.8926 0.228288 1.240896 -1.766697
2008-02-27 13:37:19 51°30.587 3°2.712 16.8931 0.224067 1.216591 -1.766697
2008-02-27 13:38:20 51°30.778 3°2.63 16.8971 0.224891 1.221093 -1.766697
2008-02-27 13:39:20 51°30.967 3°2.55 16.9061 0.226023 1.228082 -1.627401
2008-02-27 13:40:19 51°31.155 3°2.475 16.9157 0.227052 1.23364 -1.766697
2008-02-27 13:41:20 51°31.349 3°2.396 16.9234 0.227464 1.236536 -1.766697
2008-02-27 13:42:20 51°31.54 3°2.324 16.9238 0.227155 1.23452 -1.766697
2008-02-27 13:43:19 51°31.729 3°2.255 16.9332 0.22345 1.213203 -1.731873
2008-02-27 13:44:20 51°31.922 3°2.187 16.9244 0.223655 1.214176 -1.766697
2008-02-27 13:45:20 51°32.117 3°2.114 16.9457 0.224891 1.221032 -1.766697
2008-02-27 13:46:19 51°32.307 3°2.057 16.9443 0.225405 1.224447 -1.766697
2008-02-27 13:47:20 51°32.503 3°2.008 16.9514 0.227464 1.236266 -1.766697
2008-02-27 13:48:20 51°32.695 3°1.955 16.9507 0.229523 1.247653 -1.766697
2008-02-27 13:49:20 51°32.886 3°1.903 16.9497 0.232405 1.264181 -1.766697
2008-02-27 13:50:20 51°33.074 3°1.851 16.9485 0.231376 1.258517 -1.801521
2008-02-27 13:51:20 51°33.263 3°1.797 16.9548 0.229214 1.2462 -1.766697
2008-02-27 13:52:19 51°33.448 3°1.744 16.9693 0.227773 1.237909 -1.662225
2008-02-27 13:53:20 51°33.642 3°1.691 16.9728 0.228288 1.240417 -1.766697
2008-02-27 13:54:20 51°33.829 3°1.628 16.9693 0.226126 1.228259 -1.627401
2008-02-27 13:55:19 51°34.003 3°1.517 16.9717 0.229626 1.248285 -1.766697
2008-02-27 13:56:20 51°34.173 3°1.373 16.9785 0.230964 1.255842 -1.766697
2008-02-27 13:57:20 51°34.324 3°1.199 16.984 0.233743 1.272021 -1.801521
2008-02-27 13:58:19 51°34.466 3°1.017 16.996 0.230037 1.2506 -1.766697
2008-02-27 13:59:20 51°34.602 3°0.809 16.9896 0.232714 1.266057 -1.766697
2008-02-27 14:00:20 51°34.722 3°0.565 17.0054 0.231787 1.260622 -1.766697
2008-02-27 14:01:20 51°34.806 3°0.281 17.0051 0.231684 1.26018 -1.766697
2008-02-27 14:02:20 51°34.861 2°59.967 17.0149 0.231479 1.258832 -1.766697
2008-02-27 14:03:20 51°34.916 2°59.653 17.0091 0.236522 1.287657 -1.766697
2008-02-27 14:04:20 51°34.941 2°59.336 17.0106 0.233331 1.269362 -1.801521
2008-02-27 14:05:20 51°34.894 2°59.01 17.0236 0.241669 1.317599 -1.766697
2008-02-27 14:06:20 51°34.8 2°58.702 17.0258 0.239199 1.303474 -1.766697
2008-02-27 14:07:20 51°34.674 2°58.421 17.0265 0.241669 1.317356 -1.766697
2008-02-27 14:08:20 51°34.548 2°58.142 17.0319 0.238478 1.299075 -1.766697
2008-02-27 14:09:20 51°34.425 2°57.869 17.0456 0.230655 1.253968 -1.766697
2008-02-27 14:10:20 51°34.286 2°57.609 17.0522 0.230037 1.250579 -1.766697
2008-02-27 14:11:19 51°34.141 2°57.36 17.0561 0.230449 1.252852 -1.766697
2008-02-27 14:12:20 51°33.992 2°57.103 17.0664 0.227876 1.237978 -1.766697
2008-02-27 14:13:20 51°33.826 2°56.887 17.0791 0.232714 1.265802 -1.766697
2008-02-27 14:14:19 51°33.625 2°56.777 17.0588 0.235081 1.279479 -1.801521
2008-02-27 14:15:20 51°33.406 2°56.72 17.0865 0.24486 1.335136 -1.801521
2008-02-27 14:16:20 51°33.19 2°56.666 17.0737 0.241052 1.313079 -1.766697
2008-02-27 14:17:19 51°32.98 2°56.593 17.0775 0.246919 1.346475 -1.801521
2008-02-27 14:18:20 51°32.764 2°56.512 17.0815 0.250213 1.365673 -1.801521
2008-02-27 14:19:20 51°32.552 2°56.43 17.0895 0.236728 1.288578 -1.766697
2008-02-27 14:20:19 51°32.343 2°56.349 17.1213 0.242184 1.319736 -1.766697
2008-02-27 14:21:20 51°32.125 2°56.294 17.1099 0.24836 1.355239 -1.801521
2008-02-27 14:22:20 51°31.907 2°56.29 17.1059 0.259375 1.418324 -1.731873
2008-02-27 14:23:19 51°31.693 2°56.267 17.11 0.260507 1.424809 -1.766697
2008-02-27 14:24:20 51°31.473 2°56.242 17.116 0.254331 1.388731 -1.801521
2008-02-27 14:25:20 51°31.258 2°56.215 17.128 0.249904 1.3633 -1.662225
2008-02-27 14:26:19 51°31.048 2°56.187 17.1374 0.262669 1.437118 -1.801521
2008-02-27 14:27:20 51°30.834 2°56.157 17.1414 0.260919 1.427209 -1.766697
2008-02-27 14:28:20 51°30.625 2°56.124 17.1419 0.257213 1.405218 -1.766697
2008-02-27 14:29:19 51°30.42 2°56.087 17.1505 0.266683 1.45999 -1.731873
2008-02-27 14:30:20 51°30.206 2°56.05 17.1494 0.289537 1.593017 -1.801521
2008-02-27 14:31:20 51°29.996 2°56.02 17.1604 0.269463 1.476154 -1.801521
2008-02-27 14:32:19 51°29.787 2°55.981 17.1618 0.277492 1.522737 -1.731873
2008-02-27 14:33:20 51°29.57 2°55.944 17.1556 0.285728 1.569984 -1.627401
2008-02-27 14:34:20 51°29.361 2°55.906 17.1773 0.293243 1.613595 -1.766697
2008-02-27 14:35:19 51°29.159 2°55.859 17.168 0.288198 1.584065 -1.766697
2008-02-27 14:36:20 51°28.945 2°55.821 17.1815 0.272139 1.49076 -1.557753
2008-02-27 14:37:20 51°28.735 2°55.78 17.1671 0.282433 1.550712 -1.766697
2008-02-27 14:38:19 51°28.529 2°55.736 17.1816 0.288919 1.588197 -1.766697
2008-02-27 14:39:20 51°28.317 2°55.692 17.2025 0.284081 1.559979 -1.766697
2008-02-27 14:40:20 51°28.112 2°55.65 17.2101 0.291081 1.600757 -1.836345
2008-02-27 14:41:19 51°27.911 2°55.61 17.1967 0.280992 1.541733 -1.766697
2008-02-27 14:42:20 51°27.702 2°55.571 17.2112 0.280889 1.541137 -1.766697
2008-02-27 14:43:20 51°27.501 2°55.522 17.2145 0.287581 1.580106 -1.731873
2008-02-27 14:44:19 51°27.302 2°55.458 17.1981 0.288095 1.583068 -1.766697
2008-02-27 14:45:20 51°27.099 2°55.392 17.2163 0.293654 1.615447 -1.766697
2008-02-27 14:46:20 51°26.898 2°55.336 17.2188 0.291184 1.60071 -1.801521
2008-02-27 14:47:19 51°26.699 2°55.279 17.2171 0.289022 1.588474 -1.766697
2008-02-27 14:48:20 51°26.493 2°55.224 17.2229 0.294684 1.621297 -1.766697
2008-02-27 14:49:20 51°26.291 2°55.17 17.2309 0.297566 1.637487 -1.801521
2008-02-27 14:50:19 51°26.091 2°55.117 17.2304 0.285933 1.569728 -1.766697
2008-02-27 14:51:21 51°25.88 2°55.067 17.2473 0.292831 1.609469 -1.801521
2008-02-27 14:52:20 51°25.68 2°55.017 17.2451 0.287684 1.579907 -1.801521
2008-02-27 14:53:19 51°25.479 2°54.969 17.2614 0.282845 1.551719 -1.766697
2008-02-27 14:54:20 51°25.27 2°54.916 17.2497 0.288816 1.586346 -1.801521
2008-02-27 14:55:20 51°25.062 2°54.866 17.2536 0.291801 1.603759 -1.766697
2008-02-27 14:56:19 51°24.859 2°54.821 17.2508 0.29036 1.595068 -1.836345
2008-02-27 14:57:20 51°24.65 2°54.775 17.2415 0.29561 1.625566 -1.766697
2008-02-27 14:58:20 51°24.445 2°54.729 17.2646 0.290566 1.596317 -1.766697
2008-02-27 14:59:19 51°24.247 2°54.691 17.2683 0.304155 1.674747 -1.731873
2008-02-27 15:00:21 51°24.043 2°54.651 17.2751 0.299625 1.649052 -1.731873
2008-02-27 15:01:20 51°23.848 2°54.614 17.2744 0.295404 1.62426 -1.766697
2008-02-27 15:02:19 51°23.654 2°54.579 17.2902 0.301375 1.658597 -1.766697
2008-02-27 15:03:20 51°23.455 2°54.54 17.2755 0.300552 1.653888 -1.801521
2008-02-27 15:04:20 51°23.257 2°54.51 17.2794 0.296743 1.631847 -1.766697
2008-02-27 15:05:19 51°23.066 2°54.457 17.2759 0.296949 1.633017 -1.836345
2008-02-27 15:06:20 51°22.867 2°54.393 17.2777 0.293963 1.614882 -1.766697
2008-02-27 15:07:20 51°22.672 2°54.333 17.2665 0.295816 1.626107 -1.731873
2008-02-27 15:08:19 51°22.481 2°54.273 17.2923 0.299625 1.647779 -1.801521
2008-02-27 15:09:21 51°22.281 2°54.21 17.2881 0.297566 1.635894 -1.731873
2008-02-27 15:10:20 51°22.092 2°54.149 17.2956 0.30189 1.661229 -1.801521
2008-02-27 15:11:19 51°21.903 2°54.085 17.3145 0.301478 1.658639 -1.766697
2008-02-27 15:12:20 51°21.706 2°54.019 17.3067 0.299934 1.649409 -1.836345
2008-02-27 15:13:20 51°21.513 2°53.955 17.2925 0.295096 1.620615 -1.766697
2008-02-27 15:14:19 51°21.326 2°53.887 17.3136 0.297875 1.636947 -1.766697
2008-02-27 15:15:20 51°21.132 2°53.817 17.2959 0.296022 1.626185 -1.731873
2008-02-27 15:16:20 51°20.943 2°53.748 17.2958 0.300449 1.652014 -1.801521
2008-02-27 15:17:19 51°20.757 2°53.682 17.2931 0.295816 1.624771 -1.766697
2008-02-27 15:18:21 51°20.562 2°53.608 17.3112 0.300346 1.651138 -1.87117
2008-02-27 15:19:20 51°20.376 2°53.543 17.2964 0.29489 1.619312 -1.697049
2008-02-27 15:20:19 51°20.19 2°53.474 17.3084 0.294993 1.6198 -1.801521
2008-02-27 15:21:20 51°19.994 2°53.41 17.3069 0.301169 1.655481 -1.766697
2008-02-27 15:22:20 51°19.804 2°53.336 17.3205 0.29664 1.629198 -1.766697
2008-02-27 15:23:19 51°19.618 2°53.261 17.3176 0.299213 1.644309 -1.766697
2008-02-27 15:24:20 51°19.426 2°53.182 17.3087 0.294993 1.619448 -1.766697
2008-02-27 15:25:20 51°19.235 2°53.107 17.3231 0.298904 1.642377 -1.766697
2008-02-27 15:26:19 51°19.047 2°53.033 17.3062 0.297978 1.636612 -1.87117
2008-02-27 15:27:21 51°18.851 2°52.959 17.3183 0.300449 1.651294 -1.766697
2008-02-27 15:28:20 51°18.664 2°52.887 17.3242 0.299934 1.647695 -1.801521
2008-02-27 15:29:19 51°18.477 2°52.817 17.3253 0.294581 1.616706 -1.766697
2008-02-27 15:30:21 51°18.283 2°52.746 17.3271 0.298904 1.641717 -1.766697
2008-02-27 15:31:20 51°18.098 2°52.679 17.3254 0.30189 1.658669 -1.836345
2008-02-27 15:32:19 51°17.915 2°52.615 17.3404 0.302096 1.660087 -1.836345
2008-02-27 15:33:20 51°17.726 2°52.548 17.3458 0.299728 1.646665 -1.801521
2008-02-27 15:34:20 51°17.542 2°52.484 17.3421 0.302611 1.663162 -1.766697
2008-02-27 15:35:20 51°17.356 2°52.438 17.3385 0.301066 1.653442 -1.697049
2008-02-27 15:36:20 51°17.163 2°52.443 17.3507 0.304978 1.676448 -1.766697
2008-02-27 15:37:20 51°16.969 2°52.502 17.338 0.30817 1.695063 -1.731873
2008-02-27 15:38:20 51°16.782 2°52.623 17.3655 0.307243 1.689136 -1.766697
2008-02-27 15:39:21 51°16.589 2°52.743 17.3622 0.30817 1.694325 -1.87117
2008-02-27 15:40:20 51°16.406 2°52.878 17.3754 0.311876 1.716143 -1.766697
2008-02-27 15:41:19 51°16.221 2°53.015 17.3705 0.304772 1.673962 -1.905994
2008-02-27 15:42:20 51°16.03 2°53.156 17.3688 0.310949 1.710264 -1.697049
2008-02-27 15:43:20 51°15.843 2°53.294 17.3652 0.313317 1.723639 -1.731873
2008-02-27 15:44:19 51°15.664 2°53.447 17.386 0.309714 1.702251 -1.801521
2008-02-27 15:45:20 51°15.484 2°53.623 17.3943 0.316508 1.741781 -1.801521
2008-02-27 15:46:20 51°15.309 2°53.795 17.4051 0.3197 1.760164 -1.697049
2008-02-27 15:47:19 51°15.139 2°53.967 17.3871 0.315994 1.738203 -1.731873
2008-02-27 15:48:21 51°14.958 2°54.15 17.4099 0.317538 1.747455 -1.766697
2008-02-27 15:49:20 51°14.788 2°54.33 17.3943 0.316405 1.740396 -1.766697
2008-02-27 15:50:20 51°14.625 2°54.534 17.4117 0.3197 1.759752 -1.766697
2008-02-27 15:51:20 51°14.485 2°54.794 17.4124 0.321038 1.767962 -1.801521
2008-02-27 15:52:20 51°14.359 2°55.078 17.4196 0.327215 1.803865 -1.766697
2008-02-27 15:53:21 51°14.21 2°55.311 17.4276 0.3267 1.80059 -1.766697
2008-02-27 15:54:20 51°14.077 2°55.469 17.4125 0.331539 1.829293 -1.801521
2008-02-27 15:55:21 51°13.952 2°55.549 17.443 0.336069 1.855892 -1.801521
2008-02-27 15:56:20 51°13.829 2°55.632 17.4599 0.33576 1.854024 -1.766697
2008-02-27 15:57:21 51°13.755 2°55.71 17.4684 0.336481 1.858238 -1.766697
2008-02-27 15:58:20 51°13.709 2°55.787 17.4821 0.338334 1.869078 -1.766697
2008-02-27 15:59:21 51°13.68 2°55.878 17.4814 0.338746 1.871393 -1.766697
2008-02-27 16:00:24 51°13.665 2°55.947 17.4726 0.337304 1.862806 -1.766697